Location: Big Prairie
(40.6673°N, 82.0952°W)
Time: 15:11:42
(UTC+00:00)

Cosmos 2297 Rocket - Pass Details

Date: 03 December 2021
Orbit: 838 x 845 km, 71.0° (Epoch: 19 January)

Event Time Altitude Azimuth Distance (km) Brightness Sun altitude
Rises 11:58:14 0° 346° (NNW) 3,407 5.0 -7.1°
Reaches altitude 10° 12:01:09 10° 360° (N) 2,470 4.4 -6.6°
Maximum altitude 12:05:45 25° 54° (NE) 1,647 4.1 -5.8°
Drops below altitude 10° 12:10:21 10° 109° (ESE) 2,462 6.5 -5.0°
Sets 12:13:13 0° 122° (ESE) 3,394 8.0 -4.5°
